TimeEDT,TemperatureF,Dew PointF,Humidity,Sea Level PressureIn,VisibilityMPH,Wind Direction,Wind SpeedMPH,Gust SpeedMPH,PrecipitationIn,Events,Conditions,WindDirDegrees,DateUTC
12:53 AM,59.0,52.0,78,29.48,10.0,WSW,24.2,34.5,N/A,,Overcast,240,2012-10-15 04:53:00
1:53 AM,55.0,48.0,77,29.55,10.0,West,20.7,29.9,0.01,,Overcast,270,2012-10-15 05:53:00
2:53 AM,54.0,46.0,75,29.59,10.0,West,20.7,28.8,N/A,,Overcast,280,2012-10-15 06:53:00
3:53 AM,53.1,46.0,77,29.60,10.0,West,13.8,25.3,N/A,,Overcast,270,2012-10-15 07:53:00
4:12 AM,53.6,44.6,72,29.62,10.0,West,15.0,23.0,N/A,,Overcast,260,2012-10-15 08:12:00
4:53 AM,53.1,43.0,69,29.63,10.0,West,19.6,33.4,N/A,,Overcast,270,2012-10-15 08:53:00
5:09 AM,51.8,42.8,71,29.64,10.0,West,15.0,26.5,N/A,,Overcast,270,2012-10-15 09:09:00
5:53 AM,52.0,43.0,71,29.65,10.0,West,15.0,24.2,N/A,,Overcast,270,2012-10-15 09:53:00
6:05 AM,51.8,42.8,71,29.67,10.0,West,15.0,25.3,N/A,,Overcast,280,2012-10-15 10:05:00
6:53 AM,51.1,41.0,68,29.68,10.0,West,15.0,-,N/A,,Overcast,270,2012-10-15 10:53:00
7:53 AM,50.0,41.0,71,29.70,10.0,West,12.7,20.7,N/A,,Overcast,270,2012-10-15 11:53:00
8:53 AM,50.0,41.0,71,29.73,10.0,West,9.2,18.4,N/A,,Overcast,280,2012-10-15 12:53:00
9:53 AM,50.0,41.0,71,29.73,10.0,West,12.7,21.9,N/A,,Overcast,280,2012-10-15 13:53:00
10:29 AM,50.0,39.2,66,29.74,10.0,West,11.5,24.2,N/A,,Mostly Cloudy,280,2012-10-15 14:29:00
10:41 AM,51.8,39.2,62,29.74,10.0,West,16.1,23.0,N/A,,Overcast,280,2012-10-15 14:41:00
10:51 AM,51.8,39.2,62,29.75,10.0,West,10.4,24.2,N/A,,Overcast,280,2012-10-15 14:51:00
10:53 AM,51.1,39.9,66,29.75,10.0,West,10.4,24.2,N/A,,Overcast,280,2012-10-15 14:53:00
11:01 AM,51.8,39.2,62,29.75,10.0,WNW,18.4,26.5,N/A,,Overcast,290,2012-10-15 15:01:00
11:53 AM,51.1,39.0,63,29.77,10.0,West,16.1,21.9,N/A,,Overcast,280,2012-10-15 15:53:00
12:11 PM,51.8,39.2,62,29.78,10.0,WNW,13.8,27.6,N/A,,Overcast,290,2012-10-15 16:11:00
12:53 PM,52.0,39.9,63,29.79,10.0,WNW,13.8,21.9,N/A,,Overcast,290,2012-10-15 16:53:00
1:34 PM,51.8,39.2,62,29.79,10.0,West,13.8,20.7,N/A,,Overcast,280,2012-10-15 17:34:00
1:53 PM,51.1,39.9,66,29.80,10.0,WNW,12.7,21.9,N/A,,Overcast,300,2012-10-15 17:53:00
2:33 PM,51.8,39.2,62,29.80,10.0,WNW,11.5,26.5,N/A,,Overcast,300,2012-10-15 18:33:00
2:53 PM,51.1,39.9,66,29.81,10.0,WNW,16.1,21.9,N/A,,Overcast,300,2012-10-15 18:53:00
3:53 PM,51.1,39.9,66,29.83,10.0,WNW,10.4,19.6,N/A,,Overcast,290,2012-10-15 19:53:00
4:11 PM,51.8,41.0,67,29.83,10.0,WNW,10.4,-,N/A,,Overcast,290,2012-10-15 20:11:00
4:43 PM,51.8,41.0,67,29.84,10.0,WNW,12.7,21.9,N/A,,Overcast,290,2012-10-15 20:43:00
4:53 PM,51.1,41.0,68,29.84,10.0,WNW,11.5,20.7,N/A,,Overcast,300,2012-10-15 20:53:00
5:53 PM,48.9,42.1,77,29.88,10.0,WNW,12.7,20.7,0.00,Rain,Light Rain,300,2012-10-15 21:53:00
6:09 PM,48.2,42.8,82,29.87,10.0,WNW,9.2,20.7,0.00,,Overcast,290,2012-10-15 22:09:00
6:53 PM,48.9,41.0,74,29.88,10.0,WNW,8.1,-,0.00,,Overcast,300,2012-10-15 22:53:00
7:53 PM,48.9,39.9,71,29.90,10.0,NW,9.2,-,N/A,,Overcast,310,2012-10-15 23:53:00
8:32 PM,48.2,41.0,76,29.90,10.0,WNW,6.9,-,0.00,Rain,Light Rain,290,2012-10-16 00:32:00
8:43 PM,48.2,41.0,76,29.90,10.0,WNW,8.1,-,0.00,,Overcast,290,2012-10-16 00:43:00
8:53 PM,48.0,41.0,77,29.91,10.0,West,6.9,-,0.00,,Overcast,280,2012-10-16 00:53:00
9:53 PM,48.0,41.0,77,29.93,10.0,WNW,5.8,-,N/A,,Overcast,300,2012-10-16 01:53:00
10:53 PM,48.0,39.9,74,29.93,10.0,West,5.8,-,N/A,,Overcast,280,2012-10-16 02:53:00
11:53 PM,46.9,37.9,71,29.94,10.0,NW,5.8,-,N/A,,Overcast,310,2012-10-16 03:53:00